Overview Statistics Trail Chart Weather Telemetry Raw packets
 

This is the latest recevied weather packets stored in our database for station/object 4S6DRJ-13. If no packets are shown the sender has not sent any weather packets the latest 10 day(s).

<< 421 422 423 424 425 426 427 >>
Time Temp. Humidity Pressure Rain* Wind** Luminosity Snow
1787820530 30° C 74% 1008.5 hPa 0 mm 1.34 m/s, 204° 526 W/m² -
1787820469 30° C 73% 1008.3 hPa 0 mm 2.24 m/s, 190° 516 W/m² -
1787820408 30° C 74% 1008.6 hPa 0 mm 0.89 m/s, 115° 530 W/m² -
1787820347 30° C 75% 1008.5 hPa 0 mm 1.79 m/s, 229° 491 W/m² -
1787820286 30° C 75% 1008.5 hPa 0 mm 1.34 m/s, 253° 456 W/m² -
1787820225 30° C 75% 1008.6 hPa 0 mm 0.89 m/s, 249° 470 W/m² -
1787820164 30° C 76% 1008.4 hPa 0 mm 0.45 m/s, 4° 398 W/m² -
1787820103 30° C 76% 1008.5 hPa 0 mm 0.89 m/s, 152° 486 W/m² -
1787820042 30° C 75% 1008.6 hPa 0 mm 1.79 m/s, 286° 487 W/m² -
1787819982 30° C 75% 1008.4 hPa 0 mm 2.68 m/s, 279° 496 W/m² -
1787819920 30° C 75% 1008.4 hPa 0 mm 1.79 m/s, 252° 518 W/m² -
1787819859 30° C 74% 1008.3 hPa 0 mm 2.24 m/s, 307° 544 W/m² -
1787819797 30° C 74% 1008.6 hPa 0 mm 1.34 m/s, 283° 548 W/m² -
1787819737 30° C 74% 1008.7 hPa 0 mm 1.34 m/s, 308° 561 W/m² -
1787819676 30° C 74% 1008.5 hPa 0 mm 1.34 m/s, 218° 559 W/m² -
1787819615 30° C 75% 1008.7 hPa 0 mm 1.79 m/s, 265° 549 W/m² -
1787819554 30° C 74% 1008.4 hPa 0 mm 0.89 m/s, 191° 542 W/m² -
1787819493 30° C 75% 1008.3 hPa 0 mm 0.89 m/s, 308° 541 W/m² -
1787819432 30° C 75% 1008.7 hPa 0 mm 1.34 m/s, 270° 539 W/m² -
1787819371 30° C 75% 1008.5 hPa 0 mm 0 m/s 538 W/m² -
1787819310 30° C 75% 1008.6 hPa 0 mm 0 m/s 529 W/m² -
1787819249 30° C 74% 1008.6 hPa 0 mm 1.34 m/s, 68° 526 W/m² -
1787819188 30° C 74% 1008.6 hPa 0 mm 2.68 m/s, 298° 518 W/m² -
1787819127 30° C 74% 1008.6 hPa 0 mm 0.89 m/s, 278° 495 W/m² -
1787819066 30° C 74% 1008.5 hPa 0 mm 1.79 m/s, 291° 484 W/m² -

* Rain latest hour (hover to see other rain measurements)
** Current wind speed in m/s (hover to see current wind gust speed)